,,,PA_Meas_PMT16A,,PR_Meas_QMR101_102,,RH_Meas_QMH101,,SR_Meas_QMS101,,TA_Meas_QMH101,,GenWind,,GenWind,
date,time,status,PA,status,PR,status,RH,status,SR,status,TA,status,DirAvg,status,SpdAvg,
2011-11-07, 00:00:05,VALID,1000.35,VALID,0,VALID,91.1434,VALID,0,VALID,23.0964,VALID,142,VALID,0.586719,
2011-11-07, 00:01:05,VALID,1000.33,VALID,0,VALID,91.4105,VALID,0,VALID,23.1159,VALID,142,VALID,0.447656,
2011-11-07, 00:02:05,VALID,1000.27,VALID,0,VALID,91.5326,VALID,0,VALID,23.0964,VALID,142,VALID,0.628125,
2011-11-07, 00:03:05,VALID,1000.24,VALID,0,VALID,91.6317,VALID,0,VALID,23.1176,VALID,142,VALID,0.665234,
2011-11-07, 00:04:05,VALID,1000.21,VALID,0,VALID,91.6851,VALID,0,VALID,23.0769,VALID,134,VALID,0.684766,
2011-11-07, 00:05:05,VALID,1000.19,VALID,0,VALID,91.708,VALID,0,VALID,23.0573,VALID,134,VALID,0.794141,
2011-11-07, 00:06:05,VALID,1000.18,VALID,0,VALID,91.8301,VALID,0,VALID,23.0396,VALID,130,VALID,0.873047,
2011-11-07, 00:07:05,VALID,1000.14,VALID,0,VALID,91.9598,VALID,0,VALID,23.0396,VALID,130,VALID,0.749219,
2011-11-07, 00:08:05,VALID,1000.1,VALID,0,VALID,92.0056,VALID,0,VALID,22.9988,VALID,130,VALID,0.660547,
2011-11-07, 00:09:05,VALID,1000.12,VALID,0,VALID,92.0056,VALID,0,VALID,22.9598,VALID,130,VALID,0.674609,
2011-11-07, 00:10:05,VALID,1000.1,VALID,0,VALID,92.0743,VALID,0,VALID,22.9811,VALID,130,VALID,0.692578,
2011-11-07, 00:11:05,VALID,1000.13,VALID,0,VALID,92.1887,VALID,0,VALID,22.9208,VALID,130,VALID,0.513281,
2011-11-07, 00:12:05,VALID,1000.14,VALID,0,VALID,92.2268,VALID,0,VALID,22.9208,VALID,130,VALID,0.337891,
2011-11-07, 00:13:05,VALID,1000.15,VALID,0,VALID,92.1658,VALID,0,VALID,22.8818,VALID,130,VALID,0.489062,
2011-11-07, 00:14:05,VALID,1000.09,VALID,0,VALID,92.059,VALID,0,VALID,22.8445,VALID,130,VALID,0.669141,
2011-11-07, 00:15:05,VALID,1000.12,VALID,0,VALID,92.1429,VALID,0,VALID,22.7842,VALID,5,VALID,0.717969,
2011-11-07, 00:16:05,VALID,1000.1,VALID,0,VALID,92.2345,VALID,0,VALID,22.7647,VALID,340,VALID,0.692578,
2011-11-07, 00:17:05,VALID,1000.08,VALID,0,VALID,92.3642,VALID,0,VALID,22.7452,VALID,330,VALID,0.589453,
2011-11-07, 00:18:05,VALID,1000.08,VALID,0,VALID,92.5168,VALID,0,VALID,22.7452,VALID,330,VALID,0.606641,
2011-11-07, 00:19:05,VALID,1000.06,VALID,0,VALID,92.677,VALID,0,VALID,22.7664,VALID,330,VALID,0.721875,
2011-11-07, 00:20:05,VALID,1000.03,VALID,0,VALID,92.7914,VALID,0,VALID,22.7452,VALID,331,VALID,0.922656,
2011-11-07, 00:21:05,VALID,1000,VALID,0,VALID,92.8754,VALID,0,VALID,22.7452,VALID,336,VALID,0.862891,
2011-11-07, 00:22:05,VALID,999.975,VALID,0,VALID,92.9517,VALID,0,VALID,22.7257,VALID,336,VALID,0.951953,
2011-11-07, 00:23:05,VALID,999.958,VALID,0,VALID,92.9974,VALID,0,VALID,22.7274,VALID,336,VALID,0.71875,
2011-11-07, 00:24:05,VALID,999.92,VALID,0,VALID,93.0585,VALID,0,VALID,22.7274,VALID,336,VALID,0.838672,
2011-11-07, 00:25:05,VALID,999.924,VALID,0,VALID,93.1043,VALID,0,VALID,22.6884,VALID,336,VALID,0.6375,
2011-11-07, 00:26:05,VALID,999.868,VALID,0,VALID,93.1958,VALID,0,VALID,22.6867,VALID,336,VALID,0.655859,
2011-11-07, 00:27:05,VALID,999.83,VALID,0,VALID,93.2187,VALID,0,VALID,22.6867,VALID,336,VALID,0.400781,
2011-11-07, 00:28:05,VALID,999.848,VALID,0,VALID,93.2568,VALID,0,VALID,22.6689,VALID,336,VALID,0.457031,
2011-11-07, 00:29:05,VALID,999.798,VALID,0,VALID,93.2492,VALID,0,VALID,22.6282,VALID,336,VALID,0.103906,
2011-11-07, 00:30:05,VALID,999.775,VALID,0,VALID,93.2645,VALID,0,VALID,22.5892,VALID,336,VALID,0,
2011-11-07, 00:31:05,VALID,999.734,VALID,0,VALID,93.2645,VALID,0,VALID,22.5696,VALID,336,VALID,0,
2011-11-07, 00:32:05,VALID,999.691,VALID,0,VALID,93.295,VALID,0,VALID,22.5909,VALID,336,VALID,0,
2011-11-07, 00:33:05,VALID,999.653,VALID,0,VALID,93.3484,VALID,0,VALID,22.5501,VALID,336,VALID,0.479297,
2011-11-07, 00:34:05,VALID,999.627,VALID,0,VALID,93.3866,VALID,0,VALID,22.5501,VALID,145,VALID,0.992578,
2011-11-07, 00:35:05,VALID,999.61,VALID,0,VALID,93.3789,VALID,0,VALID,22.5323,VALID,138,VALID,1.01172,
2011-11-07, 00:36:05,VALID,999.592,VALID,0,VALID,93.3408,VALID,0,VALID,22.5128,VALID,138,VALID,1.11914,
2011-11-07, 00:37:05,VALID,999.546,VALID,0,VALID,93.3255,VALID,0,VALID,22.5128,VALID,138,VALID,1.01641,
2011-11-07, 00:38:05,VALID,999.575,VALID,0,VALID,93.3179,VALID,0,VALID,22.5111,VALID,138,VALID,0.835938,
2011-11-07, 00:39:05,VALID,999.55,VALID,0,VALID,93.3179,VALID,0,VALID,22.5111,VALID,138,VALID,0.630078,
2011-11-07, 00:40:05,VALID,999.585,VALID,0,VALID,93.3789,VALID,0,VALID,22.5306,VALID,138,VALID,0.705078,
2011-11-07, 00:41:05,VALID,999.57,VALID,0,VALID,93.4171,VALID,0,VALID,22.5696,VALID,138,VALID,0.779688,
2011-11-07, 00:42:05,VALID,999.536,VALID,0,VALID,93.4781,VALID,0,VALID,22.5892,VALID,138,VALID,0.803125,
2011-11-07, 00:43:05,VALID,999.545,VALID,0,VALID,93.4781,VALID,0,VALID,22.6087,VALID,138,VALID,0.581641,
2011-11-07, 00:44:05,VALID,999.522,VALID,0,VALID,93.5239,VALID,0,VALID,22.6282,VALID,165,VALID,0.792188,
2011-11-07, 00:45:05,VALID,999.51,VALID,0,VALID,93.5697,VALID,0,VALID,22.6477,VALID,166,VALID,0.842969,
2011-11-07, 00:46:05,VALID,999.544,VALID,0,VALID,93.5926,VALID,0,VALID,22.6672,VALID,160,VALID,0.853125,
2011-11-07, 00:47:05,VALID,999.551,VALID,0,VALID,93.5697,VALID,0,VALID,22.6867,VALID,160,VALID,0.891406,
2011-11-07, 00:48:05,VALID,999.545,VALID,0,VALID,93.5697,VALID,0,VALID,22.7257,VALID,161,VALID,1.29688,
2011-11-07, 00:49:05,VALID,999.572,VALID,0,VALID,93.5544,VALID,0,VALID,22.7452,VALID,161,VALID,0.928125,
2011-11-07, 00:50:05,VALID,999.556,VALID,0,VALID,93.5163,VALID,0,VALID,22.786,VALID,161,VALID,1.02969,
2011-11-07, 00:51:04,VALID,999.568,VALID,0,VALID,93.4628,VALID,0,VALID,22.8055,VALID,161,VALID,0.748047,
2011-11-07, 00:52:04,VALID,999.578,VALID,0,VALID,93.4323,VALID,0,VALID,22.7842,VALID,161,VALID,0.615625,
2011-11-07, 00:53:04,VALID,999.509,VALID,0,VALID,93.3637,VALID,0,VALID,22.7647,VALID,161,VALID,0.392578,
2011-11-07, 00:54:04,VALID,999.539,VALID,0,VALID,93.2874,VALID,0,VALID,22.7664,VALID,161,VALID,0.456641,
2011-11-07, 00:55:04,VALID,999.534,VALID,0,VALID,93.2492,VALID,0,VALID,22.7257,VALID,161,VALID,0.512891,
2011-11-07, 00:56:04,VALID,999.526,VALID,0,VALID,93.2416,VALID,0,VALID,22.7664,VALID,146,VALID,0.768359,
2011-11-07, 00:57:04,VALID,999.549,VALID,0,VALID,93.2568,VALID,0,VALID,22.7452,VALID,133,VALID,0.70625,
2011-11-07, 00:58:04,VALID,999.591,VALID,0,VALID,93.2721,VALID,0,VALID,22.7257,VALID,107,VALID,0.731641,
2011-11-07, 00:59:04,VALID,999.627,VALID,0,VALID,93.234,VALID,0,VALID,22.6867,VALID,98,VALID,1.17148,
2011-11-07, 01:00:04,VALID,999.605,VALID,0,VALID,93.3026,VALID,0,VALID,22.7062,VALID,102,VALID,1.00937,
2011-11-07, 01:01:04,VALID,999.61,VALID,0,VALID,93.3331,VALID,0,VALID,22.6867,VALID,102,VALID,0.78125,
2011-11-07, 01:02:04,VALID,999.645,VALID,0,VALID,93.3103,VALID,0,VALID,22.6477,VALID,102,VALID,0.747656,
2011-11-07, 01:03:04,VALID,999.655,VALID,0,VALID,93.3255,VALID,0,VALID,22.6282,VALID,102,VALID,0.314844,
2011-11-07, 01:04:04,VALID,999.664,VALID,0,VALID,93.3255,VALID,0,VALID,22.6299,VALID,102,VALID,0.232812,
2011-11-07, 01:05:04,VALID,999.664,VALID,0,VALID,93.3331,VALID,0,VALID,22.5892,VALID,102,VALID,0,
2011-11-07, 01:06:04,VALID,999.679,VALID,0,VALID,93.3255,VALID,0,VALID,22.5909,VALID,100,VALID,0.433203,
2011-11-07, 01:07:04,VALID,999.659,VALID,0,VALID,93.3484,VALID,0,VALID,22.5696,VALID,356,VALID,0.754297,
2011-11-07, 01:08:04,VALID,999.651,VALID,0,VALID,93.4171,VALID,0,VALID,22.5714,VALID,353,VALID,0.671094,
2011-11-07, 01:09:04,VALID,999.673,VALID,0,VALID,93.4628,VALID,0,VALID,22.5714,VALID,353,VALID,0.650391,
2011-11-07, 01:10:04,VALID,999.645,VALID,0,VALID,93.4705,VALID,0,VALID,22.5306,VALID,353,VALID,0.402734,
2011-11-07, 01:11:04,VALID,999.617,VALID,0,VALID,93.4934,VALID,0,VALID,22.5111,VALID,353,VALID,0,
2011-11-07, 01:12:04,VALID,999.594,VALID,0,VALID,93.4934,VALID,0,VALID,22.5128,VALID,353,VALID,0.233984,
2011-11-07, 01:13:04,VALID,999.531,VALID,0,VALID,93.4934,VALID,0,VALID,22.4738,VALID,353,VALID,0.342969,
2011-11-07, 01:14:04,VALID,999.534,VALID,0,VALID,93.562,VALID,0,VALID,22.4738,VALID,353,VALID,0.449219,
2011-11-07, 01:15:04,VALID,999.504,VALID,0,VALID,93.562,VALID,0,VALID,22.4738,VALID,353,VALID,0.214453,
2011-11-07, 01:16:04,VALID,999.492,VALID,0,VALID,93.6002,VALID,0,VALID,22.4136,VALID,353,VALID,0.365234,
2011-11-07, 01:17:04,VALID,999.477,VALID,0,VALID,93.6231,VALID,0,VALID,22.4136,VALID,353,VALID,0.0820313,
2011-11-07, 01:18:04,VALID,999.47,VALID,0,VALID,93.6307,VALID,0,VALID,22.3746,VALID,353,VALID,0.0046875,
2011-11-07, 01:19:04,VALID,999.482,VALID,0,VALID,93.6612,VALID,0,VALID,22.3958,VALID,353,VALID,0,
2011-11-07, 01:20:04,VALID,999.476,VALID,0,VALID,93.707,VALID,0,VALID,22.3958,VALID,353,VALID,0,
2011-11-07, 01:21:04,VALID,999.466,VALID,0,VALID,93.707,VALID,0,VALID,22.3763,VALID,353,VALID,0,
2011-11-07, 01:22:04,VALID,999.45,VALID,0,VALID,93.7375,VALID,0,VALID,22.3551,VALID,353,VALID,0,
2011-11-07, 01:23:04,VALID,999.467,VALID,0,VALID,93.7909,VALID,0,VALID,22.3763,VALID,353,VALID,0.314063,
2011-11-07, 01:24:04,VALID,999.448,VALID,0,VALID,93.8214,VALID,0,VALID,22.3941,VALID,353,VALID,0.560938,
2011-11-07, 01:25:04,VALID,999.464,VALID,0,VALID,93.852,VALID,0,VALID,22.3941,VALID,353,VALID,0.75625,
2011-11-07, 01:26:04,VALID,999.476,VALID,0,VALID,93.8748,VALID,0,VALID,22.3941,VALID,353,VALID,0.7875,
2011-11-07, 01:27:04,VALID,999.476,VALID,0,VALID,93.8977,VALID,0,VALID,22.4136,VALID,353,VALID,0.852344,
2011-11-07, 01:28:04,VALID,999.458,VALID,0,VALID,93.9283,VALID,0,VALID,22.4136,VALID,353,VALID,0.727734,
2011-11-07, 01:29:04,VALID,999.462,VALID,0,VALID,93.9435,VALID,0,VALID,22.4331,VALID,353,VALID,0.662109,
2011-11-07, 01:30:04,VALID,999.416,VALID,0,VALID,93.9435,VALID,0,VALID,22.4136,VALID,353,VALID,0.711719,
2011-11-07, 01:31:04,VALID,999.372,VALID,0,VALID,93.9664,VALID,0,VALID,22.4136,VALID,338,VALID,0.719141,
2011-11-07, 01:32:04,VALID,999.313,VALID,0,VALID,93.9893,VALID,0,VALID,22.4136,VALID,336,VALID,0.526172,
2011-11-07, 01:33:04,VALID,999.246,VALID,0,VALID,93.9893,VALID,0,VALID,22.3941,VALID,336,VALID,0.440625,
2011-11-07, 01:34:04,VALID,999.228,VALID,0,VALID,94.0045,VALID,0,VALID,22.4136,VALID,336,VALID,0.318359,
2011-11-07, 01:35:04,VALID,999.182,VALID,0,VALID,94.0351,VALID,0,VALID,22.4331,VALID,336,VALID,0.186328,
2011-11-07, 01:36:04,VALID,999.146,VALID,0,VALID,94.058,VALID,0,VALID,22.4331,VALID,336,VALID,0,
2011-11-07, 01:37:04,VALID,999.142,VALID,0,VALID,94.0503,VALID,0,VALID,22.3941,VALID,336,VALID,0.0015625,
2011-11-07, 01:38:04,VALID,999.128,VALID,0,VALID,94.0503,VALID,0,VALID,22.3161,VALID,336,VALID,0.373047,
2011-11-07, 01:39:04,VALID,999.091,VALID,0,VALID,94.0351,VALID,0,VALID,22.2966,VALID,336,VALID,0.3625,
2011-11-07, 01:40:04,VALID,999.092,VALID,0,VALID,94.058,VALID,0,VALID,22.2966,VALID,336,VALID,0.469922,
2011-11-07, 01:41:04,VALID,999.09,VALID,0,VALID,94.058,VALID,0,VALID,22.2966,VALID,336,VALID,0.616797,
2011-11-07, 01:42:04,VALID,999.093,VALID,0,VALID,94.0656,VALID,0,VALID,22.2966,VALID,336,VALID,0.434766,
2011-11-07, 01:43:04,VALID,999.066,VALID,0,VALID,94.0885,VALID,0,VALID,22.2966,VALID,336,VALID,0.45,
2011-11-07, 01:44:04,VALID,999.011,VALID,0,VALID,94.0961,VALID,0,VALID,22.3161,VALID,336,VALID,0.457812,
2011-11-07, 01:45:04,VALID,999.021,VALID,0,VALID,94.1037,VALID,0,VALID,22.2966,VALID,336,VALID,0.262109,
2011-11-07, 01:46:04,VALID,999.017,VALID,0,VALID,94.119,VALID,0,VALID,22.2576,VALID,336,VALID,0.371875,
2011-11-07, 01:47:04,VALID,998.985,VALID,0,VALID,94.0732,VALID,0,VALID,22.199,VALID,7,VALID,0.992578,
2011-11-07, 01:48:04,VALID,998.967,VALID,0,VALID,94.058,VALID,0,VALID,22.16,VALID,30,VALID,1.3418,
2011-11-07, 01:49:04,VALID,998.954,VALID,0,VALID,94.0656,VALID,0,VALID,22.16,VALID,40,VALID,1.18828,
2011-11-07, 01:50:04,VALID,998.89,VALID,0,VALID,94.0808,VALID,0,VALID,22.1795,VALID,46,VALID,0.873828,
2011-11-07, 01:51:04,VALID,998.862,VALID,0,VALID,94.1037,VALID,0,VALID,22.2381,VALID,67,VALID,0.874219,
2011-11-07, 01:52:04,VALID,998.827,VALID,0,VALID,94.1343,VALID,0,VALID,22.2771,VALID,67,VALID,0.411719,
2011-11-07, 01:53:04,VALID,998.795,VALID,0,VALID,94.1419,VALID,0,VALID,22.2576,VALID,67,VALID,0.265625,
2011-11-07, 01:54:04,VALID,998.759,VALID,0,VALID,94.1571,VALID,0,VALID,22.2364,VALID,67,VALID,0.25625,
2011-11-07, 01:55:04,VALID,998.726,VALID,0,VALID,94.1648,VALID,0,VALID,22.2576,VALID,46,VALID,0.644141,
2011-11-07, 01:56:04,VALID,998.733,VALID,0,VALID,94.1953,VALID,0,VALID,22.2576,VALID,337,VALID,0.663672,
2011-11-07, 01:57:04,VALID,998.72,VALID,0,VALID,94.1877,VALID,0,VALID,22.2771,VALID,337,VALID,0.730859,
2011-11-07, 01:58:04,VALID,998.702,VALID,0,VALID,94.18,VALID,0,VALID,22.2788,VALID,337,VALID,0.750781,
2011-11-07, 01:59:04,VALID,998.711,VALID,0,VALID,94.2029,VALID,0,VALID,22.2771,VALID,340,VALID,0.554297,
2011-11-07, 02:00:04,VALID,998.688,VALID,0,VALID,94.2258,VALID,0,VALID,22.2983,VALID,349,VALID,0.494141,
2011-11-07, 02:01:04,VALID,998.713,VALID,0,VALID,94.2029,VALID,0,VALID,22.2771,VALID,349,VALID,0.580859,
2011-11-07, 02:02:04,VALID,998.724,VALID,0,VALID,94.2258,VALID,0,VALID,22.2576,VALID,350,VALID,0.633984,
2011-11-07, 02:03:04,VALID,998.756,VALID,0,VALID,94.2334,VALID,0,VALID,22.2771,VALID,31,VALID,0.746484,
2011-11-07, 02:04:04,VALID,998.763,VALID,0,VALID,94.2563,VALID,0,VALID,22.2966,VALID,40,VALID,0.723437,
2011-11-07, 02:05:04,VALID,998.775,VALID,0,VALID,94.2487,VALID,0,VALID,22.2771,VALID,40,VALID,0.719141,
2011-11-07, 02:06:04,VALID,998.786,VALID,0,VALID,94.2563,VALID,0,VALID,22.2576,VALID,40,VALID,0.739062,
2011-11-07, 02:07:04,VALID,998.819,VALID,0,VALID,94.2487,VALID,0,VALID,22.2592,VALID,40,VALID,0.735937,
2011-11-07, 02:08:04,VALID,998.815,VALID,0,VALID,94.2563,VALID,0,VALID,22.2381,VALID,33,VALID,0.860547,
2011-11-07, 02:09:04,VALID,998.821,VALID,0,VALID,94.2563,VALID,0,VALID,22.2381,VALID,26,VALID,0.817578,
2011-11-07, 02:10:04,VALID,998.826,VALID,0,VALID,94.264,VALID,0,VALID,22.1974,VALID,26,VALID,0.749609,
2011-11-07, 02:11:04,VALID,998.803,VALID,0,VALID,94.2792,VALID,0,VALID,22.1974,VALID,26,VALID,0.543359,
2011-11-07, 02:12:04,VALID,998.775,VALID,0,VALID,94.2716,VALID,0,VALID,22.199,VALID,26,VALID,0.516406,
2011-11-07, 02:13:04,VALID,998.765,VALID,0,VALID,94.2563,VALID,0,VALID,22.2186,VALID,26,VALID,0.405469,
2011-11-07, 02:14:04,VALID,998.767,VALID,0,VALID,94.2563,VALID,0,VALID,22.2186,VALID,26,VALID,0.302344,
2011-11-07, 02:15:04,VALID,998.727,VALID,0,VALID,94.2487,VALID,0,VALID,22.2186,VALID,26,VALID,0.172266,
2011-11-07, 02:16:04,VALID,998.732,VALID,0,VALID,94.2716,VALID,0,VALID,22.1974,VALID,26,VALID,0.139453,
2011-11-07, 02:17:04,VALID,998.716,VALID,0,VALID,94.2716,VALID,0,VALID,22.2186,VALID,26,VALID,0.0796875,
2011-11-07, 02:18:04,VALID,998.734,VALID,0,VALID,94.2792,VALID,0,VALID,22.199,VALID,26,VALID,0,
2011-11-07, 02:19:04,VALID,998.743,VALID,0,VALID,94.2945,VALID,0,VALID,22.199,VALID,26,VALID,0,
2011-11-07, 02:20:04,VALID,998.747,VALID,0,VALID,94.2868,VALID,0,VALID,22.199,VALID,26,VALID,0.210156,
2011-11-07, 02:21:04,VALID,998.743,VALID,0,VALID,94.3021,VALID,0,VALID,22.2186,VALID,26,VALID,0.266406,
2011-11-07, 02:22:04,VALID,998.729,VALID,0,VALID,94.3097,VALID,0,VALID,22.2186,VALID,26,VALID,0.470313,
2011-11-07, 02:23:04,VALID,998.743,VALID,0,VALID,94.3021,VALID,0,VALID,22.2186,VALID,26,VALID,0.551953,
2011-11-07, 02:24:04,VALID,998.674,VALID,0,VALID,94.3097,VALID,0,VALID,22.2576,VALID,26,VALID,0.494922,
2011-11-07, 02:25:04,VALID,998.678,VALID,0,VALID,94.3174,VALID,0,VALID,22.2771,VALID,26,VALID,0.525391,
2011-11-07, 02:26:04,VALID,998.651,VALID,0,VALID,94.325,VALID,0,VALID,22.2966,VALID,26,VALID,0.650781,
2011-11-07, 02:27:04,VALID,998.638,VALID,0,VALID,94.325,VALID,0,VALID,22.2949,VALID,26,VALID,0.647656,
2011-11-07, 02:28:04,VALID,998.603,VALID,0,VALID,94.3479,VALID,0,VALID,22.3161,VALID,26,VALID,0.487109,
2011-11-07, 02:29:04,VALID,998.584,VALID,0,VALID,94.3479,VALID,0,VALID,22.2771,VALID,26,VALID,0.376172,
2011-11-07, 02:30:04,VALID,998.576,VALID,0,VALID,94.3555,VALID,0,VALID,22.2381,VALID,26,VALID,0.316797,
2011-11-07, 02:31:04,VALID,998.606,VALID,0,VALID,94.3631,VALID,0,VALID,22.1795,VALID,26,VALID,0.494141,
2011-11-07, 02:32:04,VALID,998.619,VALID,0,VALID,94.3631,VALID,0,VALID,22.16,VALID,27,VALID,0.957031,
2011-11-07, 02:33:04,VALID,998.591,VALID,0,VALID,94.3479,VALID,0,VALID,22.1795,VALID,27,VALID,0.967188,
2011-11-07, 02:34:04,VALID,998.58,VALID,0,VALID,94.3555,VALID,0,VALID,22.16,VALID,27,VALID,1.35859,
2011-11-07, 02:35:04,VALID,998.572,VALID,0,VALID,94.3555,VALID,0,VALID,22.1015,VALID,20,VALID,1.75703,
2011-11-07, 02:36:04,VALID,998.568,VALID,0,VALID,94.3326,VALID,0,VALID,22.082,VALID,12,VALID,1.84023,
2011-11-07, 02:37:04,VALID,998.527,VALID,0,VALID,94.3555,VALID,0,VALID,22.0803,VALID,357,VALID,1.57383,
2011-11-07, 02:38:04,VALID,998.492,VALID,0,VALID,94.3403,VALID,0,VALID,22.121,VALID,6,VALID,1.46445,
2011-11-07, 02:39:04,VALID,998.51,VALID,0,VALID,94.3631,VALID,0,VALID,22.199,VALID,343,VALID,0.699219,
2011-11-07, 02:40:04,VALID,998.518,VALID,0,VALID,94.3403,VALID,0,VALID,22.2381,VALID,354,VALID,0.769531,
2011-11-07, 02:41:04,VALID,998.505,VALID,0,VALID,94.3555,VALID,0,VALID,22.2966,VALID,355,VALID,0.626562,
2011-11-07, 02:42:04,VALID,998.534,VALID,0,VALID,94.3631,VALID,0,VALID,22.3161,VALID,5,VALID,0.485547,
2011-11-07, 02:43:04,VALID,998.575,VALID,0,VALID,94.3631,VALID,0,VALID,22.3144,VALID,5,VALID,0.546094,
2011-11-07, 02:44:04,VALID,998.572,VALID,0,VALID,94.3784,VALID,0,VALID,22.3356,VALID,14,VALID,0.705859,
2011-11-07, 02:45:04,VALID,998.583,VALID,0,VALID,94.3631,VALID,0,VALID,22.3534,VALID,20,VALID,0.745313,
2011-11-07, 02:46:04,VALID,998.586,VALID,0,VALID,94.386,VALID,0,VALID,22.3551,VALID,20,VALID,0.719531,
2011-11-07, 02:47:04,VALID,998.591,VALID,0,VALID,94.3708,VALID,0,VALID,22.3551,VALID,20,VALID,0.6625,
2011-11-07, 02:48:04,VALID,998.606,VALID,0,VALID,94.3784,VALID,0,VALID,22.3161,VALID,20,VALID,0.521484,
2011-11-07, 02:49:04,VALID,998.61,VALID,0,VALID,94.3937,VALID,0,VALID,22.2966,VALID,20,VALID,0.280078,
2011-11-07, 02:50:04,VALID,998.624,VALID,0,VALID,94.4089,VALID,0,VALID,22.2576,VALID,20,VALID,0.264844,
2011-11-07, 02:51:04,VALID,998.658,VALID,0,VALID,94.4089,VALID,0,VALID,22.2186,VALID,20,VALID,0.373047,
2011-11-07, 02:52:04,VALID,998.687,VALID,0,VALID,94.4242,VALID,0,VALID,22.2186,VALID,20,VALID,0.459375,
2011-11-07, 02:53:04,VALID,998.707,VALID,0,VALID,94.4013,VALID,0,VALID,22.1795,VALID,20,VALID,0.8625,
2011-11-07, 02:54:04,VALID,998.727,VALID,0,VALID,94.4013,VALID,0,VALID,22.16,VALID,20,VALID,0.833594,
2011-11-07, 02:55:04,VALID,998.739,VALID,0,VALID,94.4013,VALID,0,VALID,22.121,VALID,20,VALID,0.532812,
2011-11-07, 02:56:04,VALID,998.756,VALID,0,VALID,94.4013,VALID,0,VALID,22.1405,VALID,117,VALID,1.13125,
2011-11-07, 02:57:04,VALID,998.777,VALID,0,VALID,94.4089,VALID,0,VALID,22.1405,VALID,126,VALID,1.40703,
2011-11-07, 02:58:04,VALID,998.798,VALID,0,VALID,94.386,VALID,0,VALID,22.16,VALID,129,VALID,1.19531,
2011-11-07, 02:59:04,VALID,998.886,VALID,0,VALID,94.3937,VALID,0,VALID,22.199,VALID,128,VALID,1.09844,
2011-11-07, 03:00:04,VALID,998.91,VALID,0,VALID,94.3937,VALID,0,VALID,22.2186,VALID,128,VALID,0.349219,
2011-11-07, 03:01:04,VALID,998.924,VALID,0,VALID,94.3937,VALID,0,VALID,22.2186,VALID,128,VALID,0,
2011-11-07, 03:02:04,VALID,998.958,VALID,0,VALID,94.4013,VALID,0,VALID,22.2186,VALID,128,VALID,0,
2011-11-07, 03:03:04,VALID,999.007,VALID,0,VALID,94.3937,VALID,0,VALID,22.2381,VALID,128,VALID,0.00117188,
2011-11-07, 03:04:04,VALID,999.037,VALID,0,VALID,94.386,VALID,0,VALID,22.2576,VALID,128,VALID,0.153125,
2011-11-07, 03:05:04,VALID,999.088,VALID,0,VALID,94.3784,VALID,0,VALID,22.2771,VALID,128,VALID,0.199219,
2011-11-07, 03:06:04,VALID,999.112,VALID,0,VALID,94.3784,VALID,0,VALID,22.3161,VALID,128,VALID,0.242969,
2011-11-07, 03:07:04,VALID,999.144,VALID,0,VALID,94.4013,VALID,0,VALID,22.3356,VALID,128,VALID,0.275781,
2011-11-07, 03:08:04,VALID,999.163,VALID,0,VALID,94.3784,VALID,0,VALID,22.3551,VALID,128,VALID,0.10625,
2011-11-07, 03:09:04,VALID,999.189,VALID,0,VALID,94.3784,VALID,0,VALID,22.3941,VALID,128,VALID,0.14375,
2011-11-07, 03:10:04,VALID,999.207,VALID,0,VALID,94.3937,VALID,0,VALID,22.3941,VALID,128,VALID,0,
2011-11-07, 03:11:04,VALID,999.217,VALID,0,VALID,94.386,VALID,0,VALID,22.3941,VALID,128,VALID,0,
2011-11-07, 03:12:04,VALID,999.267,VALID,0,VALID,94.4013,VALID,0,VALID,22.4136,VALID,128,VALID,0,
2011-11-07, 03:13:04,VALID,999.303,VALID,0,VALID,94.386,VALID,0,VALID,22.4331,VALID,128,VALID,0,
2011-11-07, 03:14:04,VALID,999.28,VALID,0,VALID,94.4013,VALID,0,VALID,22.4526,VALID,128,VALID,0,
2011-11-07, 03:15:04,VALID,999.294,VALID,0,VALID,94.3937,VALID,0,VALID,22.4721,VALID,128,VALID,0,
2011-11-07, 03:16:04,VALID,999.279,VALID,0,VALID,94.3937,VALID,0,VALID,22.4916,VALID,128,VALID,0,
2011-11-07, 03:17:04,VALID,999.293,VALID,0,VALID,94.3937,VALID,0,VALID,22.4916,VALID,128,VALID,0.117188,
2011-11-07, 03:18:04,VALID,999.269,VALID,0,VALID,94.4013,VALID,0,VALID,22.5111,VALID,128,VALID,0,
2011-11-07, 03:19:04,VALID,999.229,VALID,0,VALID,94.386,VALID,0,VALID,22.5111,VALID,128,VALID,0.255859,
2011-11-07, 03:20:04,VALID,999.255,VALID,0,VALID,94.386,VALID,0,VALID,22.5306,VALID,128,VALID,0.227734,
2011-11-07, 03:21:04,VALID,999.283,VALID,0,VALID,94.4013,VALID,0,VALID,22.5696,VALID,128,VALID,0.243359,
2011-11-07, 03:22:04,VALID,999.26,VALID,0,VALID,94.386,VALID,0,VALID,22.5892,VALID,128,VALID,0.270703,
2011-11-07, 03:23:04,VALID,999.297,VALID,0,VALID,94.3937,VALID,0,VALID,22.6087,VALID,128,VALID,0.482422,
2011-11-07, 03:24:04,VALID,999.274,VALID,0,VALID,94.4013,VALID,0,VALID,22.6282,VALID,128,VALID,0.695703,
2011-11-07, 03:25:04,VALID,999.239,VALID,0,VALID,94.3937,VALID,0,VALID,22.6672,VALID,123,VALID,0.889063,
2011-11-07, 03:26:04,VALID,999.256,VALID,0,VALID,94.4013,VALID,0,VALID,22.7062,VALID,117,VALID,1.01758,
2011-11-07, 03:27:04,VALID,999.252,VALID,0,VALID,94.4013,VALID,0,VALID,22.7257,VALID,117,VALID,1.09883,
2011-11-07, 03:28:04,VALID,999.227,VALID,0,VALID,94.3937,VALID,0,VALID,22.7257,VALID,117,VALID,0.999219,
2011-11-07, 03:29:04,VALID,999.227,VALID,0,VALID,94.4089,VALID,0,VALID,22.7062,VALID,114,VALID,0.929297,
2011-11-07, 03:30:04,VALID,999.231,VALID,0,VALID,94.4165,VALID,0,VALID,22.7045,VALID,113,VALID,0.841406,
2011-11-07, 03:31:04,VALID,999.247,VALID,0,VALID,94.4013,VALID,0,VALID,22.6867,VALID,113,VALID,0.631641,
2011-11-07, 03:32:04,VALID,999.233,VALID,0,VALID,94.386,VALID,0,VALID,22.7062,VALID,113,VALID,0.880078,
2011-11-07, 03:33:04,VALID,999.17,VALID,0,VALID,94.4013,VALID,0,VALID,22.6867,VALID,104,VALID,0.8125,
2011-11-07, 03:34:04,VALID,999.169,VALID,0,VALID,94.3937,VALID,0,VALID,22.6477,VALID,98,VALID,0.772656,
2011-11-07, 03:35:04,VALID,999.167,VALID,0,VALID,94.3784,VALID,0,VALID,22.6282,VALID,95,VALID,0.592188,
2011-11-07, 03:36:04,VALID,999.161,VALID,0,VALID,94.3937,VALID,0,VALID,22.5892,VALID,95,VALID,0.656641,
2011-11-07, 03:37:04,VALID,999.099,VALID,0,VALID,94.3937,VALID,0,VALID,22.5501,VALID,24,VALID,0.759375,
2011-11-07, 03:38:04,VALID,999.114,VALID,0,VALID,94.3631,VALID,0,VALID,22.5323,VALID,24,VALID,0.530469,
2011-11-07, 03:39:04,VALID,999.095,VALID,0,VALID,94.3708,VALID,0,VALID,22.4721,VALID,24,VALID,0.00195313,
2011-11-07, 03:40:04,VALID,999.083,VALID,0,VALID,94.3708,VALID,0,VALID,22.4721,VALID,24,VALID,0,
2011-11-07, 03:41:04,VALID,999.065,VALID,0,VALID,94.3403,VALID,0,VALID,22.4526,VALID,24,VALID,0,
2011-11-07, 03:42:04,VALID,999.047,VALID,0,VALID,94.3403,VALID,0,VALID,22.4331,VALID,24,VALID,0,
2011-11-07, 03:43:04,VALID,999.013,VALID,0,VALID,94.3555,VALID,0,VALID,22.4331,VALID,24,VALID,0,
2011-11-07, 03:44:04,VALID,998.976,VALID,0,VALID,94.3555,VALID,0,VALID,22.4526,VALID,24,VALID,0,
2011-11-07, 03:45:04,VALID,998.98,VALID,0,VALID,94.325,VALID,0,VALID,22.4331,VALID,24,VALID,0.355859,
2011-11-07, 03:46:04,VALID,998.97,VALID,0,VALID,94.3479,VALID,0,VALID,22.4526,VALID,24,VALID,0.281641,
2011-11-07, 03:47:04,VALID,998.934,VALID,0,VALID,94.3326,VALID,0,VALID,22.4526,VALID,24,VALID,0.575,